[[{"header":{"parameterUnit":"m.s-1","parameterCategory":1,"la1":30.2991,"la2":30.254,"lo1":-89.0895,"lo2":-89.0444,"dy":0.0017,"dx":0.0017,"nx":28,"ny":28,"refTime":"2024-06-05T03:00:00:Z","depth":0,"parameterNumber":2,"parameterNumberName":"U-component_of_WINDS"},"data":[0,0,0,0,0,0,0,0,0,0,0,0,0,0,0,0,0,0,0,0,0,0,0,0,0,0,0,0,0,0,0,0,0,0,0,0,0,0,0,0,0,0,0,0,0,0,0,0,0,0,0,0,0,0,0,0,0,0,-0.4222,-0.4222,0,-0.4219,-0.4219,-0.4219,-0.4209,-0.4208,-0.4208,-0.4208,-0.4205,-0.4205,-0.4205,0,0,0,0,0,0,0,0,0,0,0,0,0,-0.4222,-0.4222,-0.4222,-0.4222,-0.4222,-0.4219,-0.4219,-0.4218,-0.4209,-0.4208,-0.4208,-0.4208,-0.4205,-0.4205,-0.4205,0,0,0,0,0,0,0,0,0,0,0,0,0,-0.4221,-0.4222,-0.4222,-0.4217,-0.4216,-0.4219,-0.4219,-0.4218,-0.4209,-0.4208,-0.4208,-0.4208,-0.4205,-0.4205,-0.4205,-0.4212,0,0,-0.4205,-0.4205,0,0,0,0,0,0,0,0,-0.4221,-0.4221,-0.4218,-0.4217,-0.4217,-0.4214,-0.4217,-0.4216,-0.4209,-0.4212,-0.4208,-0.4208,-0.4208,-0.4208,-0.4208,-0.4212,-0.4212,-0.4205,-0.4205,-0.4205,-0.4206,0,0,0,0,0,0,0,-0.4221,-0.4221,-0.4221,-0.4218,-0.4217,-0.4215,-0.4215,-0.4217,-0.4212,-0.4211,-0.4211,-0.421,-0.4208,-0.4208,-0.4208,-0.4212,-0.4205,-0.4205,-0.4206,-0.4206,-0.4223,-0.4223,0,0,0,0,0,0,-0.4222,-0.4221,-0.4221,-0.4221,-0.4218,-0.4215,-0.4215,-0.4215,-0.4212,-0.4211,-0.4211,-0.421,-0.4208,-0.4207,-0.4207,-0.4217,-0.4205,-0.4206,-0.4206,-0.4223,-0.4223,-0.4224,0,0,0,0,0,0,-0.4222,-0.4222,-0.4221,-0.4221,-0.422,-0.4216,-0.4216,-0.4215,-0.4215,-0.4211,-0.421,-0.4212,-0.4207,-0.4207,-0.4211,-0.4216,-0.4206,-0.4206,-0.4222,-0.4223,-0.4223,-0.4235,0,0,0,0,0,0,-0.4222,-0.4222,-0.4224,-0.4221,-0.4221,-0.4225,-0.4216,-0.4215,-0.4215,-0.4214,-0.4212,-0.4211,-0.4207,-0.4211,-0.4211,-0.4216,-0.4206,-0.4222,-0.4222,-0.4223,-0.4234,-0.4236,-0.4237,0,0,0,0,0,-0.4222,-0.4227,-0.4224,-0.4225,-0.4223,-0.4225,-0.4225,-0.422,-0.4216,-0.4219,-0.4216,-0.4211,-0.4216,-0.4212,-0.4212,-0.4217,-0.4221,-0.4222,-0.4223,-0.4233,-0.4235,-0.4237,0,0,0,0,0,0,-0.4232,-0.4227,-0.4224,-0.4228,-0.4227,-0.4223,-0.4227,-0.4222,-0.4223,-0.4222,-0.4216,-0.4216,-0.4221,-0.4219,-0.4215,-0.4224,-0.4218,-0.4219,-0.4225,-0.4227,-0.4229,-0.4229,-0.4206,0,0,0,0,0,-0.4234,-0.4236,-0.4232,-0.4236,-0.4236,-0.4231,-0.4232,-0.4228,-0.4227,-0.4227,-0.4224,-0.4224,-0.4225,-0.4226,-0.4227,-0.4233,-0.4233,-0.4237,-0.4239,-0.424,-0.4241,-0.4246,-0.4248,-0.4226,-0.4226,-0.4226,0,0,-0.424,-0.4237,-0.4239,-0.4238,-0.4237,-0.4239,-0.4231,-0.4233,-0.4235,-0.4227,-0.4231,-0.4229,-0.4228,-0.4234,-0.4236,-0.4233,-0.4247,-0.4241,-0.4242,-0.4243,-0.4247,-0.4249,-0.4251,-0.4227,-0.4227,-0.4227,0,0,-0.4251,-0.4249,-0.4253,-0.4252,-0.4251,-0.4248,-0.4249,-0.4246,-0.4245,-0.4248,-0.4243,-0.4245,-0.4247,-0.4247,-0.4247,-0.4259,-0.4255,-0.426,-0.4268,-0.4273,-0.4274,-0.4276,-0.4281,-0.4283,-0.4261,-0.4261,-0.4261,0,-0.4258,-0.4261,-0.4256,-0.4259,-0.4259,-0.4252,-0.4257,-0.4256,-0.4255,-0.4255,-0.4252,-0.4255,-0.4253,-0.426,-0.4263,-0.4263,-0.4264,-0.426,-0.4274,-0.4276,-0.4277,-0.4282,-0.4284,-0.4261,-0.4261,-0.4261,-0.4261,0,-0.427,-0.4273,-0.4276,-0.4275,-0.4276,-0.428,-0.4276,-0.4277,-0.4274,-0.4271,-0.4276,-0.4274,-0.4275,-0.4276,-0.4273,-0.4282,-0.428,-0.4275,-0.4269,-0.428,-0.4285,-0.4286,-0.4262,-0.4262,-0.4262,-0.4262,0,0,-0.4288,-0.4285,-0.4286,-0.4286,-0.4284,-0.4286,-0.429,-0.4291,-0.4292,-0.4292,-0.4296,-0.4298,-0.4294,-0.4294,-0.4291,-0.4295,-0.4306,-0.429,-0.4289,-0.4293,-0.4317,-0.4321,-0.4324,-0.4303,-0.4303,-0.4303,-0.4318,0,-0.4299,-0.4305,-0.4301,-0.4308,-0.4311,-0.4304,-0.4308,-0.4307,-0.4305,-0.4308,-0.4306,-0.4308,-0.4302,-0.4302,-0.4306,-0.4304,-0.4311,-0.4303,-0.4307,-0.4307,-0.4308,-0.4326,-0.433,-0.4343,-0.4319,-0.432,-0.432,0,-0.4313,-0.4314,-0.4321,-0.432,-0.4321,-0.4324,-0.4325,-0.4327,-0.4326,-0.4325,-0.4326,-0.4322,-0.4326,-0.4319,-0.4325,-0.432,-0.4321,-0.4321,-0.4321,-0.4322,-0.4315,-0.4328,-0.4347,-0.435,-0.4322,-0.4322,-0.4322,0,-0.4326,-0.4329,-0.4334,-0.4334,-0.4332,-0.4335,-0.4334,-0.4333,-0.4335,-0.4336,-0.4337,-0.4338,-0.4339,-0.4341,-0.4337,-0.4333,-0.4345,-0.4337,-0.4344,-0.4344,-0.4347,-0.4347,-0.4368,-0.4347,-0.4347,-0.4347,-0.4347,0,-0.434,-0.4345,-0.434,-0.4343,-0.4349,-0.4344,-0.435,-0.4349,-0.4348,-0.4352,-0.4346,-0.4349,-0.4345,-0.4348,-0.4345,-0.4351,-0.4352,-0.4351,-0.435,-0.4352,-0.4352,-0.4353,-0.4353,-0.4348,-0.4347,-0.4347,-0.4347,0,-0.4355,-0.4352,-0.4357,-0.4355,-0.4355,-0.4359,-0.4358,-0.4361,-0.4359,-0.4364,-0.4364,-0.4361,-0.4365,-0.4362,-0.4365,-0.4363,-0.4372,-0.4369,-0.4372,-0.4371,-0.4379,-0.4379,-0.4402,-0.4405,-0.4381,-0.4381,-0.4382,0,-0.4364,-0.4368,-0.4367,-0.4369,-0.4369,-0.4371,-0.4373,-0.4369,-0.4371,-0.4371,-0.4374,-0.4377,-0.438,-0.4385,-0.4384,-0.4386,-0.4384,-0.4392,-0.4385,-0.4387,-0.4386,-0.4386,-0.4387,-0.4394,-0.4394,-0.4395,-0.4395,0,-0.4381,-0.438,-0.4382,-0.4384,-0.4386,-0.4387,-0.4388,-0.439,-0.4386,-0.4388,-0.4392,-0.4393,-0.4397,-0.44,-0.4402,-0.4402,-0.4398,-0.4397,-0.4399,-0.4401,-0.4403,-0.4403,-0.4377,-0.4397,-0.4397,-0.4397,-0.4396,-0.4396,-0.4394,-0.4398,-0.4398,-0.4401,-0.4401,-0.4403,-0.4406,-0.4405,-0.4407,-0.441,-0.4407,-0.4412,-0.4412,-0.4415,-0.4415,-0.4419,-0.4416,-0.4419,-0.4419,-0.442,-0.4422,-0.4402,-0.442,-0.4419,-0.4419,-0.4419,-0.4419,0,-0.4412,-0.4412,-0.4415,-0.4416,-0.4419,-0.4415,-0.4416,-0.4418,-0.4423,-0.4423,-0.4426,-0.443,-0.4434,-0.4433,-0.4436,-0.4439,-0.4438,-0.444,-0.444,-0.4441,-0.4424,-0.4423,-0.4442,-0.4442,-0.4442,-0.4442,-0.4442,-0.4442,-0.4421,-0.4428,-0.4426,-0.4433,-0.4433,-0.4437,-0.4438,-0.444,-0.4441,-0.4446,-0.4449,-0.4448,-0.4449,-0.4452,-0.4455,-0.4455,-0.4457,-0.446,-0.4459,-0.4444,-0.4442,-0.444,-0.4438,-0.446,-0.446,-0.4476,-0.4476,-0.4476]},{"header":{"parameterUnit":"m.s-1","parameterCategory":1,"la1":30.2991,"la2":30.254,"lo1":-89.0895,"lo2":-89.0444,"dy":0.0017,"dx":0.0017,"nx":28,"ny":28,"refTime":"2024-06-05T03:00:00:Z","depth":0,"parameterNumber":3,"parameterNumberName":"V-component_of_WINDS"},"data":[0,0,0,0,0,0,0,0,0,0,0,0,0,0,0,0,0,0,0,0,0,0,0,0,0,0,0,0,0,0,0,0,0,0,0,0,0,0,0,0,0,0,0,0,0,0,0,0,0,0,0,0,0,0,0,0,0,0,5.6526,5.6527,0,5.6637,5.6639,5.664,5.6577,5.6574,5.6571,5.6568,5.6677,5.6683,5.6688,0,0,0,0,0,0,0,0,0,0,0,0,0,5.625,5.6255,5.6525,5.6527,5.6528,5.6637,5.6639,5.664,5.6577,5.6573,5.657,5.6566,5.6675,5.6682,5.6689,0,0,0,0,0,0,0,0,0,0,0,0,0,5.6366,5.6257,5.6525,5.651,5.651,5.6637,5.6639,5.6641,5.6578,5.6573,5.6569,5.6564,5.6673,5.6681,5.669,5.6837,0,0,5.6716,5.672,0,0,0,0,0,0,0,0,5.636,5.6377,5.6511,5.6511,5.6511,5.6588,5.6582,5.6706,5.6579,5.6552,5.6568,5.6562,5.6651,5.6661,5.6692,5.6842,5.6846,5.6717,5.6722,5.6726,5.6729,0,0,0,0,0,0,0,5.6352,5.6371,5.6569,5.6513,5.6513,5.6495,5.6507,5.6605,5.6626,5.6554,5.655,5.6564,5.665,5.6684,5.6694,5.6848,5.6717,5.6725,5.673,5.6733,5.712,5.7125,0,0,0,0,0,0,5.6346,5.6365,5.6566,5.6573,5.6423,5.6504,5.6517,5.6568,5.6625,5.6629,5.6568,5.6561,5.6671,5.6684,5.6698,5.6871,5.6726,5.6734,5.6739,5.7115,5.7121,5.7126,0,0,0,0,0,0,5.634,5.6364,5.6561,5.6468,5.6492,5.6514,5.6572,5.6573,5.6607,5.6635,5.6638,5.6599,5.6668,5.6686,5.6802,5.6874,5.6738,5.6746,5.7109,5.7117,5.7124,5.7221,0,0,0,0,0,0,5.6332,5.6363,5.6421,5.647,5.6497,5.6667,5.6577,5.6579,5.6623,5.6614,5.6665,5.6669,5.6666,5.679,5.6811,5.6884,5.6753,5.7102,5.7112,5.7121,5.7211,5.7231,5.7248,0,0,0,0,0,5.6323,5.6443,5.6424,5.6448,5.657,5.6671,5.6686,5.6681,5.6629,5.6686,5.6703,5.6668,5.6863,5.6802,5.6825,5.6902,5.7098,5.711,5.7121,5.7203,5.7227,5.7247,0,0,0,0,0,0,5.64,5.6449,5.6429,5.6569,5.6616,5.666,5.6732,5.6707,5.6769,5.6759,5.6748,5.676,5.6881,5.6903,5.6834,5.7045,5.6972,5.6988,5.7027,5.705,5.7067,5.7059,5.676,0,0,0,0,0,5.6434,5.6514,5.6551,5.6671,5.6696,5.671,5.6754,5.6746,5.6794,5.6813,5.684,5.6886,5.6957,5.7005,5.7072,5.7214,5.7223,5.7278,5.7296,5.7311,5.7325,5.7399,5.7423,5.7164,5.7164,5.7163,0,0,5.6504,5.654,5.6591,5.6687,5.6723,5.6804,5.6727,5.6816,5.6875,5.6826,5.6938,5.6959,5.7009,5.7139,5.7197,5.7161,5.7399,5.7325,5.7337,5.7343,5.7413,5.7437,5.7459,5.7171,5.717,5.7169,0,0,5.6672,5.6709,5.6811,5.6849,5.6904,5.6913,5.6937,5.6985,5.6997,5.7109,5.7074,5.7142,5.7266,5.7303,5.7338,5.7518,5.7486,5.754,5.7634,5.7706,5.7727,5.7745,5.7807,5.7829,5.7554,5.7554,5.7554,0,5.6751,5.6873,5.6867,5.6958,5.7,5.6961,5.7063,5.7099,5.7173,5.7202,5.7161,5.7315,5.7346,5.7482,5.7526,5.7556,5.7582,5.7534,5.7725,5.7743,5.7759,5.7818,5.7842,5.756,5.756,5.7559,5.7558,0,5.6966,5.7051,5.7127,5.7201,5.7251,5.7348,5.7354,5.7405,5.7392,5.7404,5.7517,5.7553,5.7626,5.7658,5.7646,5.7792,5.7767,5.7726,5.7652,5.779,5.7845,5.7868,5.7569,5.7567,5.7565,5.7563,0,0,5.7187,5.7255,5.7283,5.7315,5.7373,5.7437,5.753,5.7602,5.7646,5.7698,5.7774,5.7879,5.784,5.788,5.7871,5.7935,5.8072,5.7885,5.7886,5.7917,5.8232,5.8262,5.8288,5.8051,5.8056,5.8059,5.8227,0,5.7357,5.7522,5.7518,5.7671,5.7747,5.7709,5.779,5.7832,5.7845,5.791,5.7923,5.7997,5.7942,5.7965,5.8027,5.8042,5.8135,5.803,5.812,5.8123,5.8107,5.8317,5.835,5.8507,5.8249,5.8252,5.8255,0,5.7579,5.7639,5.7799,5.7843,5.7875,5.7948,5.8013,5.8076,5.8122,5.8127,5.8171,5.8151,5.8243,5.8167,5.8291,5.822,5.8256,5.8269,5.8275,5.8282,5.8197,5.8329,5.8557,5.858,5.8289,5.8286,5.8284,0,5.7721,5.7842,5.7953,5.7982,5.8036,5.8088,5.8113,5.8154,5.8198,5.8254,5.8281,5.8347,5.8382,5.8432,5.843,5.8375,5.8555,5.8479,5.8559,5.8559,5.8598,5.8596,5.8834,5.8624,5.8624,5.8623,5.8623,0,5.7911,5.801,5.8017,5.8086,5.8194,5.8187,5.8294,5.8313,5.8351,5.842,5.8391,5.8456,5.845,5.8514,5.8513,5.8615,5.8631,5.8636,5.8634,5.8638,5.8637,5.8661,5.8649,5.8629,5.8628,5.8627,5.8626,0,5.8089,5.8098,5.8216,5.8258,5.8271,5.8349,5.8383,5.8446,5.8456,5.8544,5.8564,5.8579,5.8653,5.8656,5.8742,5.874,5.8864,5.8851,5.8849,5.8846,5.8925,5.8917,5.9186,5.922,5.8989,5.8991,5.8993,0,5.8209,5.8285,5.8334,5.8379,5.8407,5.848,5.8524,5.8519,5.8566,5.8623,5.8678,5.875,5.8808,5.8928,5.8945,5.901,5.8997,5.9086,5.9006,5.9007,5.8996,5.8991,5.8997,5.9102,5.9104,5.9106,5.9108,0,5.8421,5.8421,5.8487,5.8554,5.8607,5.8659,5.8707,5.8745,5.8745,5.8798,5.8875,5.8919,5.9006,5.9077,5.914,5.9162,5.9135,5.9133,5.9155,5.9159,5.9154,5.9156,5.889,5.9127,5.9125,5.9124,5.9122,5.9122,5.8573,5.8637,5.8681,5.8754,5.879,5.8835,5.8896,5.8913,5.8978,5.9049,5.9042,5.9126,5.9167,5.9249,5.9276,5.934,5.9309,5.9341,5.9349,5.9357,5.9364,5.9145,5.9352,5.9351,5.9351,5.935,5.935,0,5.8781,5.8808,5.8875,5.8943,5.9,5.8971,5.9021,5.907,5.9145,5.9187,5.9244,5.9331,5.9399,5.9421,5.9486,5.9533,5.9522,5.955,5.9546,5.9551,5.9389,5.9363,5.9558,5.9558,5.9558,5.9558,5.9558,5.9558,5.8896,5.9003,5.9008,5.9131,5.9156,5.9239,5.9271,5.9311,5.9344,5.9443,5.95,5.9514,5.9547,5.9614,5.9674,5.9679,5.9703,5.9737,5.9736,5.9584,5.9563,5.9543,5.9518,5.9743,5.9743,5.9892,5.9894,5.9895]}]]